Change the Weather History Date:

Saturday, November 10, 2012

  Actual Average Record
Temperature  
Mean Temperature 50 °F -  
Max Temperature 53 °F 46 °F 57 °F (2003)
Min Temperature 47 °F 37 °F 32 °F (2001)
Degree Days  
Heating Degree Days 15    
Moisture  
Dew Point 50 °F    
Average Humidity 97    
Maximum Humidity 100    
Minimum Humidity 86    
Precipitation  
Precipitation 0.12 in - - ()
Sea Level Pressure  
Sea Level Pressure 29.50 in    
Wind  
Wind Speed 10 mph ()    
Max Wind Speed 13 mph    
Max Gust Speed 23 mph    
Visibility 5.3 miles    
Events Rain    
Averages and records for this station are not official NWS values.
T = Trace of Precipitation, MM = Missing Value Source: Averaged Metar Reports

Daily Weather History Graph

Daily Weather History Graph

Search for Another Location

Airport or City:

Trip Planner

Search our weather history database for the weather conditions in past years. The results will help you decide how hot, cold, wet, or windy it might be!

Date:

Astronomy

Nov. 10, 2012 Rise Set
Actual Time 7:53 AM CET 4:58 PM CET
Civil Twilight 7:16 AM CET 5:34 PM CET
Nautical Twilight 6:36 AM CET 6:15 PM CET
Astronomical Twilight 5:56 AM CET 6:54 PM CET
Moon 3:14 AM CET (11/10) 2:58 PM CET (11/10)
Length of Visible Light 10h 17m
Length of Day
9h 04m
Waning Crescent, 16% of the Moon is Illuminated
Nov 10
Waning Crescent
Nov 13
New
Nov 20
First Quarter
Nov 28
Full
Dec 6
Last Quarter

Hourly Weather History & Observations

Time (CET) Temp. Dew Point Humidity Pressure Visibility Wind Dir Wind Speed Gust Speed Precip Events Conditions
12:25 AM 48.2 °F 44.6 °F 87% 29.65 in 6.2 mi South 12.7 mph - N/A   Overcast
12:55 AM 48.2 °F 44.6 °F 87% 29.65 in 6.2 mi South 11.5 mph - N/A   Overcast
1:00 AM 48 °F 45 °F 86% 29.66 in 9 mi South 13.4 mph - - Rain Light Rain Showers
1:25 AM 48.2 °F 46.4 °F 93% 29.65 in 4.3 mi South 11.5 mph - N/A   Overcast
1:55 AM 48.2 °F 46.4 °F 93% 29.62 in 5.6 mi South 9.2 mph - N/A   Drizzle
2:25 AM 48.2 °F 46.4 °F 93% 29.62 in 5.0 mi South 11.5 mph - N/A   Drizzle
2:55 AM 48.2 °F 46.4 °F 93% 29.62 in 4.3 mi South 11.5 mph - N/A   Overcast
3:25 AM 48.2 °F 48.2 °F 100% 29.59 in 4.3 mi South 11.5 mph - N/A   Overcast
3:55 AM 48.2 °F 48.2 °F 100% 29.59 in 3.7 mi South 10.4 mph - N/A   Overcast
4:00 AM 48 °F 48 °F 99% 29.60 in 3 mi South 11.2 mph - -   Mist
4:25 AM 48.2 °F 48.2 °F 100% 29.59 in - South 11.5 mph - N/A   Overcast
4:55 AM 48.2 °F 48.2 °F 100% 29.56 in 3.1 mi South 8.1 mph - N/A Rain Light Rain
5:25 AM 48.2 °F 48.2 °F 100% 29.56 in 3.1 mi South 9.2 mph - N/A   Light Drizzle
5:55 AM 48.2 °F 48.2 °F 100% 29.56 in 3.1 mi South 9.2 mph - N/A   Partly Cloudy
6:25 AM 48.2 °F 48.2 °F 100% 29.53 in 2.2 mi South 9.2 mph - N/A Rain Light Rain
6:55 AM 48.2 °F 48.2 °F 100% 29.53 in - South 8.1 mph - N/A Rain Drizzle
7:00 AM 49 °F 49 °F 99% 29.56 in 3 mi South 8.9 mph - - Rain Rain
7:25 AM 48.2 °F 48.2 °F 100% 29.53 in - South 10.4 mph 23.0 mph N/A   Overcast
7:55 AM 48.2 °F 48.2 °F 100% 29.53 in - South 9.2 mph - N/A   Overcast
8:25 AM 50.0 °F 50.0 °F 100% 29.53 in - South 9.2 mph - N/A   Partly Cloudy
8:55 AM 50.0 °F 50.0 °F 100% 29.53 in - South 10.4 mph - N/A   Overcast
9:25 AM 50.0 °F 50.0 °F 100% 29.53 in 3.1 mi South 10.4 mph - N/A   Overcast
9:55 AM 50.0 °F 50.0 °F 100% 29.53 in 4.3 mi South 10.4 mph - N/A   Partly Cloudy
10:00 AM 51 °F 50 °F 96%  in 4 mi South 8.9 mph - - Rain Rain
10:25 AM 51.8 °F 50.0 °F 94% 29.50 in 5.0 mi South 11.5 mph - N/A   Overcast
10:55 AM 51.8 °F 50.0 °F 94% 29.50 in 5.0 mi South 11.5 mph - N/A   Mostly Cloudy
11:25 AM 51.8 °F 50.0 °F 94% 29.50 in 5.0 mi South 9.2 mph - N/A   Overcast
11:55 AM 51.8 °F 50.0 °F 94% 29.50 in 5.0 mi South 8.1 mph - N/A   Overcast
12:25 PM 51.8 °F 50.0 °F 94% 29.47 in 3.7 mi South 9.2 mph - N/A   Overcast
12:55 PM 51.8 °F 51.8 °F 100% 29.47 in 1.9 mi South 8.1 mph - N/A   Overcast
1:00 PM 52 °F 51 °F 97% 29.49 in 3 mi South 8.9 mph - -   Mist
1:25 PM 51.8 °F 51.8 °F 100% 29.47 in 5.0 mi South 10.4 mph - N/A   Overcast
1:55 PM 51.8 °F 51.8 °F 100% 29.47 in 6.2 mi South 9.2 mph - N/A   Mostly Cloudy
2:25 PM 53.6 °F 51.8 °F 94% 29.44 in 6.2 mi South 9.2 mph - N/A   Mostly Cloudy
2:55 PM 53.6 °F 51.8 °F 94% 29.44 in 6.2 mi South 10.4 mph - N/A   Overcast
3:25 PM 51.8 °F 51.8 °F 100% 29.44 in 6.2 mi South 10.4 mph - N/A   Overcast
3:55 PM 51.8 °F 51.8 °F 100% 29.42 in 6.2 mi South 8.1 mph - N/A   Overcast
4:00 PM 53 °F 51 °F 92% 29.44 in 7 mi South 6.7 mph - -   Overcast
4:25 PM 51.8 °F 51.8 °F 100% 29.44 in 6.2 mi South 6.9 mph - N/A   Overcast
4:55 PM 51.8 °F 51.8 °F 100% 29.42 in 6.2 mi SSE 9.2 mph - N/A   Mostly Cloudy
5:25 PM 51.8 °F 51.8 °F 100% 29.42 in 6.2 mi South 11.5 mph - N/A   Mostly Cloudy
5:55 PM 51.8 °F 51.8 °F 100% 29.42 in 6.2 mi SSE 10.4 mph - N/A   Scattered Clouds
6:25 PM 51.8 °F 51.8 °F 100% 29.42 in 6.2 mi SSE 9.2 mph - N/A   Scattered Clouds
6:55 PM 53.6 °F 51.8 °F 94% 29.42 in 6.2 mi South 11.5 mph - N/A   Partly Cloudy
7:00 PM 53 °F 51 °F 92% 29.44 in 9 mi South 11.2 mph - -   Partly Cloudy
7:25 PM 53.6 °F 51.8 °F 94% 29.42 in 6.2 mi South 10.4 mph - N/A   Scattered Clouds
7:55 PM 53.6 °F 51.8 °F 94% 29.42 in 6.2 mi South 10.4 mph - N/A   Overcast
8:25 PM 51.8 °F 51.8 °F 100% 29.42 in 6.2 mi South 9.2 mph - N/A Rain Light Rain
8:55 PM 51.8 °F 51.8 °F 100% 29.42 in 6.2 mi SSE 10.4 mph - N/A   Mostly Cloudy
9:25 PM 51.8 °F 50.0 °F 94% 29.42 in 6.2 mi South 10.4 mph - N/A   Unknown
9:55 PM 51.8 °F 50.0 °F 94% 29.42 in 6.2 mi South 8.1 mph - N/A   Mostly Cloudy
10:00 PM 52 °F 51 °F 94% 29.43 in 9 mi South 8.9 mph - - Rain Drizzle
10:25 PM 51.8 °F 51.8 °F 100% 29.42 in 6.2 mi South 10.4 mph - N/A   Drizzle
10:55 PM 50.0 °F 50.0 °F 100% 29.44 in - WNW 11.5 mph - N/A   Heavy Drizzle
11:25 PM 48.2 °F 48.2 °F 100% 29.47 in - West 9.2 mph - N/A   Heavy Drizzle
11:55 PM 48.2 °F 48.2 °F 100% 29.50 in 6.2 mi West 10.4 mph - N/A   Drizzle